• In Uzbekistan
  • List of Countries
  • For 7 days
  • Water Temperature
  • Satellite Maps
  • Weather Map
  • Weather Widgets
  • user-avatar
    Login

    Hourly Weather Ganja

    Today, 26 May, Friday

    Time Temperature Precipitation Wind Pressure Humidity
    00:00 +13°C° 0 mm 1 mps 726 mmHg 66%
    01:00 +13°C° 0 mm 1 mps 726 mmHg 69%
    02:00 +13°C° 0 mm 1 mps 726 mmHg 72%
    03:00 +11°C° 0 mm 0 mps 726 mmHg 76%
    04:00 +12°C° 0 mm 0 mps 726 mmHg 72%
    05:00 +15°C° 0 mm 1 mps 726 mmHg 68%
    06:00 +16°C° 0 mm 1 mps 727 mmHg 64%
    07:00 +19°C° 0 mm 1 mps 726 mmHg 58%
    08:00 +20°C° 0 mm 1 mps 726 mmHg 51%
    09:00 +22°C° 0 mm 1 mps 726 mmHg 44%
    10:00 +23°C° 0 mm 1 mps 726 mmHg 43%
    11:00 +24°C° 0 mm 2 mps 725 mmHg 41%
    12:00 +25°C° 0 mm 2 mps 725 mmHg 40%
    13:00 +25°C° 0 mm 2 mps 725 mmHg 40%
    14:00 +26°C° 0 mm 2 mps 724 mmHg 41%
    15:00 +26°C° 0 mm 2 mps 724 mmHg 41%
    16:00 +25°C° 0 mm 2 mps 724 mmHg 45%
    17:00 +25°C° 0 mm 2 mps 724 mmHg 48%
    18:00 +24°C° 0 mm 2 mps 724 mmHg 52%
    19:00 +21°C° 0.1 mm 2 mps 724 mmHg 57%
    20:00 +20°C° 0.1 mm 1 mps 724 mmHg 63%
    21:00 +18°C° 0.1 mm 1 mps 724 mmHg 68%
    22:00 +18°C° 0 mm 1 mps 724 mmHg 70%
    23:00 +16°C° 0 mm 1 mps 724 mmHg 72%

    Tomorrow, 27 May, Saturday

    Time Temperature Precipitation Wind Pressure Humidity
    00:00 +16°C° 0 mm 1 mps 724 mmHg 75%
    01:00 +15°C° 0.1 mm 1 mps 724 mmHg 78%
    02:00 +15°C° 0.1 mm 1 mps 724 mmHg 81%
    03:00 +14°C° 0.1 mm 1 mps 724 mmHg 85%
    04:00 +15°C° 0 mm 1 mps 724 mmHg 82%
    05:00 +16°C° 0 mm 1 mps 724 mmHg 79%
    06:00 +18°C° 0 mm 1 mps 724 mmHg 76%
    07:00 +20°C° 0 mm 1 mps 724 mmHg 70%
    08:00 +21°C° 0 mm 1 mps 724 mmHg 64%
    09:00 +23°C° 0 mm 1 mps 724 mmHg 57%
    10:00 +24°C° 0.2 mm 1 mps 723 mmHg 53%
    11:00 +25°C° 0.2 mm 1 mps 723 mmHg 48%
    12:00 +26°C° 0.2 mm 1 mps 722 mmHg 44%
    13:00 +27°C° 0.3 mm 1 mps 722 mmHg 43%
    14:00 +27°C° 0.3 mm 1 mps 721 mmHg 43%
    15:00 +28°C° 0.3 mm 1 mps 721 mmHg 42%
    16:00 +27°C° 0.3 mm 1 mps 721 mmHg 46%
    17:00 +26°C° 0.3 mm 1 mps 721 mmHg 49%
    18:00 +26°C° 0.3 mm 1 mps 721 mmHg 52%
    19:00 +23°C° 0.4 mm 1 mps 721 mmHg 57%
    20:00 +21°C° 0.4 mm 1 mps 722 mmHg 62%
    21:00 +18°C° 0.4 mm 1 mps 722 mmHg 67%
    22:00 +18°C° 0.3 mm 1 mps 722 mmHg 69%
    23:00 +18°C° 0.3 mm 1 mps 722 mmHg 71%

    Day after tomorrow, 28 May, Sunday

    Time Temperature Precipitation Wind Pressure Humidity
    00:00 +18°C° 0.3 mm 1 mps 722 mmHg 72%
    01:00 +16°C° 0 mm 1 mps 723 mmHg 73%
    02:00 +16°C° 0 mm 1 mps 723 mmHg 73%
    03:00 +16°C° 0 mm 1 mps 723 mmHg 74%
    04:00 +17°C° 0 mm 2 mps 723 mmHg 71%
    05:00 +17°C° 0 mm 2 mps 723 mmHg 68%
    06:00 +18°C° 0 mm 2 mps 723 mmHg 65%
    07:00 +20°C° 0 mm 2 mps 723 mmHg 58%
    08:00 +23°C° 0 mm 2 mps 723 mmHg 50%
    09:00 +25°C° 0 mm 3 mps 724 mmHg 43%
    10:00 +26°C° 0 mm 2 mps 723 mmHg 41%
    11:00 +27°C° 0 mm 2 mps 723 mmHg 39%
    12:00 +29°C° 0 mm 2 mps 722 mmHg 37%
    13:00 +29°C° 0 mm 2 mps 722 mmHg 37%
    14:00 +29°C° 0 mm 2 mps 722 mmHg 36%
    15:00 +30°C° 0 mm 2 mps 721 mmHg 36%
    16:00 +29°C° 0.2 mm 2 mps 721 mmHg 40%
    17:00 +28°C° 0.2 mm 2 mps 722 mmHg 44%
    18:00 +27°C° 0.2 mm 2 mps 722 mmHg 48%
    19:00 +25°C° 0.5 mm 2 mps 722 mmHg 54%
    20:00 +21°C° 0.5 mm 2 mps 723 mmHg 60%
    21:00 +20°C° 0.5 mm 1 mps 724 mmHg 65%
    22:00 +18°C° 0.2 mm 2 mps 724 mmHg 67%
    23:00 +18°C° 0.2 mm 2 mps 724 mmHg 69%

    29 May, Monday

    Time Temperature Precipitation Wind Pressure Humidity
    00:00 +17°C° 0.2 mm 2 mps 724 mmHg 71%
    01:00 +17°C° 0 mm 3 mps 724 mmHg 71%
    02:00 +17°C° 0 mm 3 mps 725 mmHg 72%
    03:00 +16°C° 0 mm 3 mps 725 mmHg 72%
    04:00 +17°C° 0 mm 3 mps 725 mmHg 70%
    05:00 +18°C° 0 mm 3 mps 725 mmHg 68%
    06:00 +18°C° 0 mm 3 mps 726 mmHg 66%
    07:00 +20°C° 0 mm 3 mps 726 mmHg 58%
    08:00 +22°C° 0 mm 3 mps 726 mmHg 51%
    09:00 +25°C° 0 mm 3 mps 727 mmHg 43%
    10:00 +26°C° 0 mm 2 mps 727 mmHg 42%
    11:00 +27°C° 0 mm 2 mps 727 mmHg 40%
    12:00 +28°C° 0 mm 2 mps 726 mmHg 39%
    13:00 +28°C° 0.1 mm 3 mps 726 mmHg 40%
    14:00 +28°C° 0.1 mm 4 mps 726 mmHg 41%
    15:00 +28°C° 0.1 mm 5 mps 726 mmHg 42%
    16:00 +27°C° 0.1 mm 6 mps 727 mmHg 48%
    17:00 +24°C° 0.1 mm 6 mps 727 mmHg 54%
    18:00 +23°C° 0.1 mm 7 mps 727 mmHg 61%
    19:00 +20°C° 0.1 mm 7 mps 728 mmHg 66%
    20:00 +17°C° 0.1 mm 7 mps 728 mmHg 71%
    21:00 +15°C° 0.1 mm 7 mps 729 mmHg 76%
    22:00 +15°C° 0 mm 6 mps 729 mmHg 76%
    23:00 +14°C° 0 mm 5 mps 729 mmHg 77%

    30 May, Tuesday

    Time Temperature Precipitation Wind Pressure Humidity
    00:00 +14°C° 0 mm 5 mps 729 mmHg 78%
    01:00 +13°C° 0 mm 4 mps 729 mmHg 78%
    02:00 +13°C° 0 mm 3 mps 728 mmHg 79%
    03:00 +14°C° 0 mm 2 mps 728 mmHg 80%
    04:00 +14°C° 0 mm 2 mps 728 mmHg 78%
    05:00 +14°C° 0 mm 1 mps 728 mmHg 77%
    06:00 +15°C° 0 mm 1 mps 728 mmHg 75%
    07:00 +16°C° 0 mm 1 mps 727 mmHg 70%
    08:00 +19°C° 0 mm 1 mps 727 mmHg 66%
    09:00 +20°C° 0 mm 1 mps 727 mmHg 61%
    10:00 +21°C° 0 mm 1 mps 726 mmHg 57%
    11:00 +23°C° 0 mm 1 mps 726 mmHg 52%
    12:00 +24°C° 0 mm 1 mps 725 mmHg 48%
    13:00 +25°C° 0 mm 1 mps 725 mmHg 47%
    14:00 +26°C° 0 mm 1 mps 724 mmHg 45%
    15:00 +27°C° 0 mm 1 mps 724 mmHg 44%
    16:00 +26°C° 0 mm 1 mps 724 mmHg 46%
    17:00 +26°C° 0 mm 1 mps 724 mmHg 49%
    18:00 +26°C° 0 mm 1 mps 724 mmHg 52%
    19:00 +23°C° 0 mm 1 mps 724 mmHg 58%
    20:00 +21°C° 0 mm 1 mps 724 mmHg 64%
    21:00 +19°C° 0 mm 1 mps 725 mmHg 70%
    22:00 +18°C° 0 mm 1 mps 725 mmHg 71%
    23:00 +18°C° 0 mm 1 mps 725 mmHg 71%

    31 May, Wednesday

    Time Temperature Precipitation Wind Pressure Humidity
    00:00 +18°C° 0 mm 1 mps 725 mmHg 71%
    01:00 +16°C° 0 mm 1 mps 724 mmHg 70%
    02:00 +16°C° 0 mm 1 mps 724 mmHg 69%
    03:00 +16°C° 0 mm 1 mps 724 mmHg 68%
    04:00 +17°C° 0 mm 2 mps 724 mmHg 64%
    05:00 +18°C° 0 mm 2 mps 724 mmHg 60%
    06:00 +20°C° 0 mm 2 mps 725 mmHg 56%
    07:00 +23°C° 0 mm 2 mps 724 mmHg 50%
    08:00 +25°C° 0 mm 2 mps 724 mmHg 44%
    09:00 +27°C° 0 mm 2 mps 724 mmHg 38%
    10:00 +28°C° 0 mm 2 mps 723 mmHg 36%
    11:00 +29°C° 0 mm 2 mps 723 mmHg 35%
    12:00 +30°C° 0 mm 2 mps 723 mmHg 33%
    13:00 +30°C° 0 mm 2 mps 722 mmHg 33%
    14:00 +31°C° 0 mm 2 mps 722 mmHg 33%
    15:00 +31°C° 0 mm 2 mps 722 mmHg 33%
    16:00 +30°C° 0.1 mm 2 mps 722 mmHg 36%
    17:00 +30°C° 0.1 mm 2 mps 722 mmHg 40%
    18:00 +29°C° 0.1 mm 2 mps 722 mmHg 43%
    19:00 +26°C° 0.2 mm 2 mps 722 mmHg 49%
    20:00 +24°C° 0.2 mm 2 mps 722 mmHg 54%
    21:00 +20°C° 0.2 mm 2 mps 722 mmHg 59%
    22:00 +21°C° 0.2 mm 1 mps 722 mmHg 63%
    23:00 +20°C° 0.2 mm 1 mps 722 mmHg 66%
    Show more